#timestamp,LO_Frequency,Hit,StdDev 
1621800015.4,286047000.5,N
1621800035.3,286047001.0,N
1621800055.1,286047000.5,N
1621800056.0,286047000.5,N
1621800075.8,286047000.1,N
1621800095.7,286047002.5,N
1621800115.5,286047002.4,N
1621800135.3,286047001.9,N
1621800155.2,286046999.8,N
1621800175.0,286046999.9,N
1621800175.9,286046999.9,N
1621800195.8,286046998.1,N
1621800215.6,286046997.0,N
1621800235.4,286046998.3,N
1621800255.3,286046998.2,N
1621800275.1,286047000.9,N
1621800295.9,286047000.7,N
1621800315.7,286046998.8,N
1621800335.5,286047001.0,N
1621800355.4,286046999.2,N
1621800375.2,286046996.7,N
1621800395.1,286046996.9,N
1621800396.0,286046996.9,N
1621800415.8,286046999.6,N
1621800435.6,286046998.3,N
1621800455.5,286047001.2,N
1621800475.3,286046998.6,N
1621800495.1,286047001.0,N
1621800515.9,286046999.8,N
1621800535.7,286047001.4,N
1621800555.6,286047002.8,N
1621800575.4,286047002.5,N
1621800595.2,286047003.6,N
1621800615.1,286047001.4,N
1621800616.0,286047001.4,N
1621800635.8,286047001.4,N
1621800655.6,286047003.6,N
1621800675.5,286047004.0,N
1621800695.3,286047006.0,N
1621800715.2,286047002.9,N
1621800735.9,286047003.7,N
1621800755.7,286047002.9,N
1621800775.6,286047005.8,N
1621800795.4,286047002.9,N
1621800815.2,286047005.9,N
1621800835.1,286047005.0,N
1621800836.0,286047005.0,N
1621800855.8,286047005.7,N
1621800875.7,286047004.6,N
1621800895.5,286047004.8,N
1621800915.3,286047003.6,N
1621800935.2,286047002.2,N
1621800955.0,286047001.8,N
1621800955.9,286047001.8,N
1621800975.8,286047002.0,N
1621800995.6,286047003.0,N
1621801015.4,286047004.2,N
1621801035.3,286047003.9,N
1621801055.1,286047001.8,N
1621801075.9,286047011.9,Y
1621801095.7,286047000.8,P
1621801115.5,286047000.6,N
1621801135.4,286047001.1,N
1621801155.2,286047002.0,N
1621801175.0,286047002.5,N
1621801175.9,286047002.5,N
1621801195.8,286047002.2,N
1621801215.6,286047001.9,N
1621801235.5,286047001.7,N
1621801255.3,286047002.7,Y
1621801275.1,286047000.9,P
1621801295.9,286046998.2,P
1621801315.7,286046998.5,N
1621801335.6,286047000.5,N
1621801355.4,286046999.5,N
1621801375.2,286046999.1,N
1621801395.1,286046998.8,N
1621801396.0,286046998.8,N
1621801415.8,286047001.1,N
1621801435.7,286047000.0,N
1621801455.5,286047000.5,N
1621801475.3,286047000.3,N
1621801495.2,286047000.7,N
1621801515.0,286047000.3,N
1621801515.9,286047000.3,N
1621801535.7,286047001.0,N
1621801555.6,286047002.8,N
1621801575.4,286046998.7,N
1621801595.3,286047000.8,N
1621801615.1,286046999.0,N
1621801616.0,286046999.0,N
1621801635.8,286046997.1,N
1621801655.7,286046999.4,N
1621801675.5,286046996.8,N
1621801695.4,286046995.9,Y
1621801715.2,286046997.9,P
1621801735.0,286046995.9,P
1621801735.9,286046995.9,N
1621801755.8,286046994.9,Y
1621801775.6,286046997.5,P
1621801795.5,286046999.4,P
1621801815.3,286047000.8,N
1621801835.1,286047000.1,N
1621801855.9,286047002.2,N
1621801875.7,286046999.9,N
1621801895.5,286047002.2,N
1621801915.4,286047000.0,N
1621801935.2,286046998.5,N
1621801955.1,286047000.7,N
1621801956.0,286047000.7,N
1621801975.8,286046999.8,N
1621801995.6,286047002.6,N
1621802015.5,286047001.3,N
1621802035.3,286047000.2,N
1621802055.2,286047003.1,N
1621802075.9,286047001.3,N
1621802095.7,286047001.8,N
1621802115.6,286047001.9,N
1621802135.4,286047002.0,N
1621802155.2,286047004.4,N
1621802175.1,286047003.2,N
1621802176.0,286047003.2,N
1621802195.8,286047001.8,N
1621802215.7,286046999.9,N
1621802235.5,286047000.1,N
1621802255.3,286047002.8,N
1621802275.2,286046998.6,N
1621802295.0,286047000.6,N
1621802295.9,286047000.6,N
1621802315.8,286047001.0,N
1621802335.6,286047000.3,N
1621802355.4,286046998.9,N
1621802375.3,286046999.4,N
1621802395.1,286046999.9,N
1621802415.9,286047002.4,N
1621802435.7,286047004.0,N
1621802455.5,286047002.4,N
1621802475.4,286046998.8,N
1621802495.2,286047002.6,N
1621802515.0,286047001.9,N
1621802515.9,286047001.9,N
1621802535.8,286047001.7,N
1621802555.6,286046998.7,N
1621802575.5,286047000.7,N
1621802595.3,286047000.6,N
1621802615.1,286046999.7,N
1621802635.9,286046999.7,N
1621802655.7,286047001.7,N
1621802675.6,286047000.9,N
1621802695.4,286047000.3,N
1621802715.2,286046998.5,N
1621802735.1,286047001.1,N
1621802736.0,286047001.1,N
1621802755.8,286047000.2,N
1621802775.7,286047004.4,Y
1621802795.5,286047001.5,P
1621802815.3,286047002.1,P
1621802835.2,286047001.6,N
1621802855.0,286047000.0,N
1621802855.9,286047000.0,N
1621802875.8,286047002.6,Y
1621802895.6,286047002.6,P
1621802915.4,286047000.7,N
1621802935.3,286047001.0,N
1621802955.1,286047002.6,Y
1621802975.8,286046997.1,P
1621802995.7,286046996.6,N
1621803015.5,286046999.6,N
1621803035.4,286046999.2,N
1621803055.2,286047000.6,N
1621803075.0,286046999.1,N
1621803075.9,286046999.1,N
1621803095.8,286046997.5,N
1621803115.6,286046995.7,N
1621803135.4,286046995.1,N
1621803155.3,286046995.0,N
1621803175.1,286046999.5,N
1621803195.9,286046999.4,N
1621803215.7,286046995.3,N
1621803235.5,286046997.7,N
1621803255.4,286046997.1,N
1621803275.2,286046996.0,N
1621803295.0,286046995.3,N
1621803295.9,286046995.3,N
1621803315.8,286046993.5,Y
1621803335.6,286046996.9,P
1621803355.5,286047001.1,P
1621803375.3,286047000.1,N
1621803395.1,286047000.0,N
1621803415.9,286047002.7,N
1621803435.7,286046999.7,N
1621803455.6,286047001.5,N
1621803475.4,286047004.4,N
1621803495.2,286046999.8,N
1621803515.1,286047000.0,N
1621803516.0,286047000.0,N
1621803535.8,286047000.8,N
1621803555.6,286047002.6,N
1621803575.5,286046999.8,N
1621803595.3,286047002.0,N
